GLO1748 SBBR-SBFL

Flight info

Callsign GLO1748
Flight time 2h 0m
Altitude 34000
Route PAPI2A KUKOL UZ5 IMTBI EDREX
Aircraft B738/M-SDE2E3FGHIRWXY/LB1

Departure

Time 2026-05-07 00:00
Airport Presidente Juscelino Kubitschek International Airport (SBBR)

Arrival

Time 2026-05-07 02:01
Airport Hercílio Luz International Airport (SBFL)
Time Latitude Longitude Altitude Speed Heading
2026-05-06 23:04 -15.86712 -47.91843 3470 ft 0 kts 176°
2026-05-06 23:45 -15.86711 -47.91843 3471 ft 1 kts 176°
2026-05-06 23:46 -15.86688 -47.91845 3468 ft 4 kts 172°
2026-05-06 23:46 -15.86662 -47.91850 3469 ft 4 kts 166°
2026-05-06 23:46 -15.86636 -47.91859 3470 ft 4 kts 150°
2026-05-06 23:46 -15.86618 -47.91875 3470 ft 4 kts 103°
2026-05-06 23:47 -15.86617 -47.91886 3469 ft 1 kts 86°
2026-05-06 23:47 -15.86617 -47.91887 3469 ft 1 kts 86°
2026-05-06 23:49 -15.86616 -47.91876 3470 ft 5 kts 86°
2026-05-06 23:49 -15.86613 -47.91825 3470 ft 8 kts 86°
2026-05-06 23:50 -15.86611 -47.91758 3470 ft 10 kts 98°
2026-05-06 23:50 -15.86736 -47.91708 3471 ft 11 kts 176°
2026-05-06 23:50 -15.86812 -47.91703 3471 ft 11 kts 176°
2026-05-06 23:51 -15.86887 -47.91698 3471 ft 11 kts 176°
2026-05-06 23:51 -15.86958 -47.91693 3471 ft 10 kts 176°
2026-05-06 23:51 -15.87028 -47.91688 3471 ft 10 kts 176°
2026-05-06 23:51 -15.87096 -47.91684 3470 ft 10 kts 176°
2026-05-06 23:52 -15.87163 -47.91679 3471 ft 9 kts 175°
2026-05-06 23:52 -15.87229 -47.91674 3471 ft 10 kts 176°
2026-05-06 23:52 -15.87304 -47.91669 3471 ft 11 kts 176°
2026-05-06 23:52 -15.87386 -47.91664 3470 ft 11 kts 176°
2026-05-06 23:53 -15.87463 -47.91659 3470 ft 12 kts 176°
2026-05-06 23:53 -15.87551 -47.91653 3466 ft 12 kts 176°
2026-05-06 23:53 -15.87631 -47.91648 3463 ft 12 kts 176°
2026-05-06 23:53 -15.87715 -47.91648 3462 ft 12 kts 207°
2026-05-06 23:54 -15.87739 -47.91726 3462 ft 12 kts 266°
2026-05-06 23:54 -15.87745 -47.91816 3464 ft 15 kts 266°
2026-05-06 23:54 -15.87752 -47.91929 3467 ft 16 kts 266°
2026-05-06 23:54 -15.87760 -47.92051 3469 ft 17 kts 266°
2026-05-06 23:55 -15.87769 -47.92179 3471 ft 18 kts 266°
2026-05-06 23:55 -15.87777 -47.92304 3471 ft 17 kts 266°
2026-05-06 23:55 -15.87784 -47.92421 3475 ft 17 kts 266°
2026-05-06 23:55 -15.87793 -47.92551 3475 ft 19 kts 266°
2026-05-06 23:56 -15.87801 -47.92684 3477 ft 19 kts 266°
2026-05-06 23:56 -15.87810 -47.92819 3479 ft 18 kts 266°
2026-05-06 23:56 -15.87818 -47.92953 3480 ft 19 kts 266°
2026-05-06 23:56 -15.87827 -47.93088 3483 ft 18 kts 266°
2026-05-06 23:57 -15.87835 -47.93218 3488 ft 18 kts 266°
2026-05-06 23:57 -15.87843 -47.93343 3495 ft 17 kts 266°
2026-05-06 23:57 -15.87851 -47.93464 3504 ft 16 kts 266°
2026-05-06 23:57 -15.87858 -47.93579 3500 ft 16 kts 266°
2026-05-06 23:58 -15.87866 -47.93691 3504 ft 15 kts 266°
2026-05-06 23:58 -15.87873 -47.93798 3509 ft 15 kts 266°
2026-05-06 23:58 -15.87879 -47.93901 3508 ft 14 kts 266°
2026-05-06 23:58 -15.87906 -47.93985 3513 ft 10 kts 219°
2026-05-06 23:59 -15.87969 -47.93995 3512 ft 9 kts 176°
2026-05-06 23:59 -15.88031 -47.93990 3512 ft 9 kts 169°
2026-05-06 23:59 -15.88064 -47.93950 3510 ft 4 kts 86°
2026-05-06 23:59 -15.88064 -47.93941 3516 ft 12 kts 86°
2026-05-07 00:00 -15.88041 -47.93587 3503 ft 84 kts 86°
2026-05-07 00:00 -15.87987 -47.92761 3478 ft 145 kts 86°
2026-05-07 00:00 -15.87930 -47.91597 3741 ft 172 kts 89°
2026-05-07 00:00 -15.87984 -47.90340 4424 ft 180 kts 105°
2026-05-07 00:01 -15.88660 -47.89181 4860 ft 203 kts 138°
2026-05-07 00:01 -15.90057 -47.88592 5053 ft 233 kts 163°
2026-05-07 00:01 -15.91719 -47.88216 5316 ft 254 kts 165°
2026-05-07 00:01 -15.93492 -47.87818 5763 ft 265 kts 164°
2026-05-07 00:02 -15.95283 -47.87400 6202 ft 263 kts 163°
2026-05-07 00:02 -15.97042 -47.86968 6626 ft 264 kts 163°
2026-05-07 00:02 -15.98833 -47.86515 7048 ft 266 kts 163°
2026-05-07 00:02 -16.00632 -47.86054 7522 ft 267 kts 162°
2026-05-07 00:03 -16.02445 -47.85589 8014 ft 269 kts 164°
2026-05-07 00:03 -16.04324 -47.85541 8508 ft 277 kts 191°
2026-05-07 00:03 -16.06075 -47.86421 9083 ft 286 kts 211°
2026-05-07 00:03 -16.07510 -47.87903 9643 ft 300 kts 241°
2026-05-07 00:04 -16.08023 -47.89988 10379 ft 302 kts 271°
2026-05-07 00:04 -16.07949 -47.92219 10792 ft 318 kts 273°
2026-05-07 00:04 -16.07881 -47.94538 11266 ft 330 kts 272°
2026-05-07 00:04 -16.07877 -47.96944 11930 ft 335 kts 266°
2026-05-07 00:05 -16.08387 -47.99317 12637 ft 338 kts 246°
2026-05-07 00:05 -16.09451 -48.01496 13398 ft 339 kts 240°
2026-05-07 00:05 -16.10608 -48.03647 14072 ft 343 kts 240°
2026-05-07 00:05 -16.11785 -48.05815 14671 ft 346 kts 240°
2026-05-07 00:06 -16.12966 -48.08003 15319 ft 347 kts 240°
2026-05-07 00:06 -16.14142 -48.10203 15960 ft 349 kts 240°
2026-05-07 00:06 -16.15303 -48.12393 16570 ft 352 kts 240°
2026-05-07 00:06 -16.16482 -48.14629 17185 ft 354 kts 240°
2026-05-07 00:07 -16.17669 -48.16885 17801 ft 357 kts 240°
2026-05-07 00:07 -16.18863 -48.19158 18397 ft 359 kts 240°
2026-05-07 00:07 -16.20064 -48.21445 18925 ft 361 kts 240°
2026-05-07 00:07 -16.21271 -48.23743 19463 ft 363 kts 239°
2026-05-07 00:08 -16.22483 -48.26052 20023 ft 364 kts 239°
2026-05-07 00:08 -16.23910 -48.28214 20525 ft 363 kts 223°
2026-05-07 00:08 -16.25885 -48.29823 21064 ft 359 kts 206°
2026-05-07 00:08 -16.28144 -48.30813 21629 ft 357 kts 197°
2026-05-07 00:09 -16.30504 -48.31622 22195 ft 358 kts 195°
2026-05-07 00:09 -16.32882 -48.32406 22737 ft 359 kts 195°
2026-05-07 00:09 -16.35267 -48.33193 23286 ft 360 kts 195°
2026-05-07 00:09 -16.37658 -48.33993 23795 ft 362 kts 195°
2026-05-07 00:10 -16.40053 -48.34803 24251 ft 362 kts 195°
2026-05-07 00:10 -16.42445 -48.35622 24737 ft 362 kts 195°
2026-05-07 00:10 -16.44859 -48.36451 24965 ft 371 kts 196°
2026-05-07 00:10 -16.47350 -48.37308 25039 ft 383 kts 196°
2026-05-07 00:11 -16.49883 -48.38182 25104 ft 394 kts 196°
2026-05-07 00:11 -16.52519 -48.39092 25169 ft 404 kts 196°
2026-05-07 00:11 -16.55216 -48.40025 25228 ft 413 kts 196°
2026-05-07 00:11 -16.57978 -48.40982 25285 ft 422 kts 196°
2026-05-07 00:12 -16.60781 -48.41953 25436 ft 427 kts 196°
2026-05-07 00:12 -16.63599 -48.42929 25746 ft 427 kts 196°
2026-05-07 00:12 -16.66419 -48.43905 26097 ft 426 kts 196°
2026-05-07 00:12 -16.69269 -48.44759 26359 ft 427 kts 191°
2026-05-07 00:13 -16.72173 -48.45161 26598 ft 427 kts 184°
2026-05-07 00:13 -16.75140 -48.45386 26879 ft 428 kts 184°
2026-05-07 00:13 -16.78113 -48.45608 27156 ft 429 kts 184°
2026-05-07 00:13 -16.81095 -48.45836 27426 ft 430 kts 184°
2026-05-07 00:14 -16.84082 -48.46073 27683 ft 431 kts 184°
2026-05-07 00:14 -16.87079 -48.46316 27941 ft 432 kts 184°
2026-05-07 00:14 -16.90082 -48.46565 28193 ft 433 kts 184°
2026-05-07 00:14 -16.93090 -48.46816 28439 ft 434 kts 184°
2026-05-07 00:15 -16.96108 -48.47070 28689 ft 435 kts 184°
2026-05-07 00:15 -16.99087 -48.47320 28923 ft 436 kts 185°
2026-05-07 00:15 -17.02116 -48.47575 29220 ft 436 kts 185°
2026-05-07 00:15 -17.05128 -48.47828 29620 ft 433 kts 185°
2026-05-07 00:16 -17.08115 -48.48080 30052 ft 430 kts 185°
2026-05-07 00:16 -17.11076 -48.48329 30400 ft 428 kts 185°
2026-05-07 00:16 -17.14043 -48.48578 30664 ft 428 kts 185°
2026-05-07 00:16 -17.17011 -48.48828 30895 ft 428 kts 185°
2026-05-07 00:17 -17.19977 -48.49077 31157 ft 428 kts 185°
2026-05-07 00:17 -17.22941 -48.49327 31457 ft 427 kts 185°
2026-05-07 00:17 -17.25858 -48.49572 31755 ft 426 kts 186°
2026-05-07 00:17 -17.28812 -48.49821 32028 ft 426 kts 186°
2026-05-07 00:18 -17.31762 -48.50069 32304 ft 425 kts 186°
2026-05-07 00:18 -17.34709 -48.50318 32603 ft 424 kts 186°
2026-05-07 00:18 -17.37651 -48.50566 32894 ft 424 kts 186°
2026-05-07 00:18 -17.40592 -48.50814 33177 ft 423 kts 186°
2026-05-07 00:19 -17.43523 -48.51061 33474 ft 423 kts 186°
2026-05-07 00:19 -17.46452 -48.51308 33760 ft 422 kts 186°
2026-05-07 00:19 -17.49380 -48.51555 34060 ft 421 kts 186°
2026-05-07 00:19 -17.52255 -48.51798 34319 ft 420 kts 187°
2026-05-07 00:20 -17.55168 -48.52044 34552 ft 420 kts 187°
2026-05-07 00:20 -17.58082 -48.52290 34755 ft 420 kts 187°
2026-05-07 00:20 -17.60994 -48.52536 34977 ft 420 kts 187°
2026-05-07 00:20 -17.63904 -48.52782 35231 ft 419 kts 187°
2026-05-07 00:21 -17.66800 -48.53027 35486 ft 417 kts 187°
2026-05-07 00:21 -17.69695 -48.53272 35704 ft 417 kts 187°
2026-05-07 00:21 -17.72588 -48.53519 35898 ft 417 kts 187°
2026-05-07 00:21 -17.75436 -48.53769 36090 ft 416 kts 187°
2026-05-07 00:22 -17.81227 -48.54288 36090 ft 417 kts 187°
2026-05-07 00:22 -17.87004 -48.54805 36093 ft 415 kts 187°
2026-05-07 00:23 -17.92751 -48.55318 36099 ft 413 kts 187°
2026-05-07 00:23 -17.98432 -48.55824 36095 ft 412 kts 187°
2026-05-07 00:24 -18.04142 -48.56334 36097 ft 411 kts 187°
2026-05-07 00:24 -18.09839 -48.56843 36086 ft 411 kts 187°
2026-05-07 00:25 -18.15529 -48.57351 36095 ft 411 kts 187°
2026-05-07 00:25 -18.21236 -48.57862 36093 ft 412 kts 187°
2026-05-07 00:26 -18.26915 -48.58370 36103 ft 413 kts 187°
2026-05-07 00:26 -18.32647 -48.58885 36099 ft 414 kts 187°
2026-05-07 00:27 -18.38395 -48.59414 36101 ft 415 kts 187°
2026-05-07 00:27 -18.44141 -48.59945 36101 ft 415 kts 187°
2026-05-07 00:28 -18.49861 -48.60473 36102 ft 415 kts 187°
2026-05-07 00:28 -18.55615 -48.61003 36111 ft 415 kts 187°
2026-05-07 00:29 -18.61373 -48.61534 36096 ft 415 kts 187°
2026-05-07 00:30 -18.72808 -48.62583 36108 ft 413 kts 187°
2026-05-07 00:30 -18.78535 -48.63101 36112 ft 413 kts 187°
2026-05-07 00:31 -18.84250 -48.63619 36108 ft 412 kts 187°
2026-05-07 00:31 -18.89959 -48.64138 36107 ft 412 kts 187°
2026-05-07 00:32 -18.95624 -48.64653 36100 ft 411 kts 187°
2026-05-07 00:32 -19.01322 -48.65171 36110 ft 411 kts 187°
2026-05-07 00:33 -19.07018 -48.65690 36107 ft 411 kts 187°
2026-05-07 00:33 -19.12710 -48.66209 36101 ft 411 kts 187°
2026-05-07 00:34 -19.18362 -48.66728 36104 ft 410 kts 188°
2026-05-07 00:34 -19.24048 -48.67308 36103 ft 411 kts 188°
2026-05-07 00:35 -19.29734 -48.67904 36111 ft 411 kts 188°
2026-05-07 00:35 -19.35429 -48.68498 36109 ft 411 kts 188°
2026-05-07 00:36 -19.41086 -48.69083 36103 ft 412 kts 188°
2026-05-07 00:36 -19.46785 -48.69672 36096 ft 412 kts 188°
2026-05-07 00:37 -19.52487 -48.70262 36094 ft 412 kts 188°
2026-05-07 00:37 -19.58190 -48.70852 36096 ft 411 kts 188°
2026-05-07 00:38 -19.63851 -48.71438 36091 ft 412 kts 188°
2026-05-07 00:38 -19.69551 -48.72029 36099 ft 412 kts 188°
2026-05-07 00:39 -19.75249 -48.72620 36087 ft 411 kts 188°
2026-05-07 00:39 -19.80943 -48.73210 36087 ft 411 kts 188°
2026-05-07 00:40 -19.86602 -48.73798 36102 ft 411 kts 188°
2026-05-07 00:40 -19.92294 -48.74389 36076 ft 411 kts 188°
2026-05-07 00:41 -19.97978 -48.74981 36097 ft 410 kts 188°
2026-05-07 00:41 -20.03660 -48.75572 36076 ft 410 kts 188°
2026-05-07 00:42 -20.09298 -48.76159 36077 ft 410 kts 188°
2026-05-07 00:42 -20.14974 -48.76751 36079 ft 410 kts 188°
2026-05-07 00:43 -20.20650 -48.77343 36083 ft 410 kts 188°
2026-05-07 00:43 -20.26283 -48.77931 36076 ft 409 kts 188°
2026-05-07 00:44 -20.31951 -48.78523 36078 ft 409 kts 188°
2026-05-07 00:44 -20.37621 -48.79116 36097 ft 409 kts 188°
2026-05-07 00:45 -20.43288 -48.79709 36082 ft 409 kts 188°
2026-05-07 00:45 -20.48917 -48.80298 36084 ft 409 kts 188°
2026-05-07 00:46 -20.54580 -48.80892 36088 ft 409 kts 188°
2026-05-07 00:46 -20.60239 -48.81485 36088 ft 408 kts 188°
2026-05-07 00:47 -20.65897 -48.82079 36095 ft 408 kts 188°
2026-05-07 00:47 -20.71536 -48.82798 36092 ft 407 kts 192°
2026-05-07 00:48 -20.77082 -48.83760 36091 ft 407 kts 191°
2026-05-07 00:48 -20.82688 -48.84666 36092 ft 407 kts 191°
2026-05-07 00:49 -20.88289 -48.85552 36094 ft 407 kts 191°
2026-05-07 00:49 -20.93894 -48.86443 36091 ft 407 kts 191°
2026-05-07 00:50 -20.99458 -48.87332 36096 ft 407 kts 191°
2026-05-07 00:50 -21.05060 -48.88228 36095 ft 407 kts 191°
2026-05-07 00:51 -21.10654 -48.89124 36092 ft 407 kts 191°
2026-05-07 00:51 -21.16249 -48.90022 36098 ft 407 kts 191°
2026-05-07 00:52 -21.21846 -48.90919 36089 ft 407 kts 191°
2026-05-07 00:52 -21.27406 -48.91804 36094 ft 406 kts 191°
2026-05-07 00:53 -21.32996 -48.92693 36087 ft 406 kts 191°
2026-05-07 00:53 -21.38590 -48.93584 36084 ft 406 kts 191°
2026-05-07 00:54 -21.44175 -48.94475 36093 ft 406 kts 191°
2026-05-07 00:54 -21.49727 -48.95361 36087 ft 406 kts 191°
2026-05-07 00:55 -21.55312 -48.96254 36085 ft 406 kts 191°
2026-05-07 00:55 -21.60901 -48.97148 36084 ft 406 kts 191°
2026-05-07 00:56 -21.66480 -48.98082 36082 ft 405 kts 194°
2026-05-07 00:56 -21.71921 -48.99434 36089 ft 404 kts 196°
2026-05-07 00:57 -21.77395 -49.00822 36090 ft 404 kts 195°
2026-05-07 00:57 -21.82876 -49.02166 36089 ft 404 kts 195°
2026-05-07 00:58 -21.88360 -49.03506 36088 ft 404 kts 195°
2026-05-07 00:58 -21.93803 -49.04840 36086 ft 404 kts 195°
2026-05-07 00:59 -22.02019 -49.06860 36091 ft 404 kts 195°
2026-05-07 01:00 -22.07500 -49.08209 36101 ft 404 kts 195°
2026-05-07 01:00 -22.12979 -49.09558 36110 ft 404 kts 195°
2026-05-07 01:01 -22.18419 -49.10903 36121 ft 404 kts 195°
2026-05-07 01:01 -22.23899 -49.12259 36125 ft 404 kts 195°
2026-05-07 01:02 -22.29385 -49.13617 36131 ft 405 kts 195°
2026-05-07 01:02 -22.34875 -49.14977 36132 ft 405 kts 195°
2026-05-07 01:03 -22.40337 -49.16340 36124 ft 405 kts 196°
2026-05-07 01:03 -22.45779 -49.17901 36123 ft 405 kts 198°
2026-05-07 01:04 -22.51221 -49.19495 36104 ft 405 kts 197°
2026-05-07 01:04 -22.56693 -49.20962 36091 ft 407 kts 192°
2026-05-07 01:05 -22.62345 -49.21285 36103 ft 411 kts 185°
2026-05-07 01:05 -22.68054 -49.21371 36104 ft 410 kts 185°
2026-05-07 01:06 -22.73766 -49.21473 36106 ft 410 kts 185°
2026-05-07 01:06 -22.79474 -49.21590 36097 ft 410 kts 185°
2026-05-07 01:07 -22.85139 -49.21711 36104 ft 410 kts 185°
2026-05-07 01:07 -22.90834 -49.21834 36101 ft 409 kts 185°
2026-05-07 01:08 -22.96525 -49.21958 36105 ft 409 kts 185°
2026-05-07 01:08 -23.02218 -49.22082 36105 ft 409 kts 185°
2026-05-07 01:09 -23.07909 -49.22205 36113 ft 409 kts 185°
2026-05-07 01:09 -23.13566 -49.22328 36107 ft 409 kts 185°
2026-05-07 01:10 -23.19265 -49.22452 36103 ft 410 kts 185°
2026-05-07 01:10 -23.24966 -49.22576 36111 ft 410 kts 185°
2026-05-07 01:11 -23.30667 -49.22700 36112 ft 410 kts 185°
2026-05-07 01:11 -23.36333 -49.22824 36109 ft 410 kts 185°
2026-05-07 01:12 -23.42040 -49.22948 36107 ft 410 kts 185°
2026-05-07 01:12 -23.47743 -49.23072 36126 ft 410 kts 185°
2026-05-07 01:13 -23.53448 -49.23197 36114 ft 410 kts 186°
2026-05-07 01:13 -23.59118 -49.23321 36117 ft 410 kts 186°
2026-05-07 01:14 -23.64831 -49.23446 36117 ft 411 kts 185°
2026-05-07 01:14 -23.70544 -49.23571 36120 ft 411 kts 185°
2026-05-07 01:15 -23.76258 -49.23696 36126 ft 411 kts 186°
2026-05-07 01:15 -23.81936 -49.23821 36126 ft 411 kts 186°
2026-05-07 01:16 -23.87648 -49.23946 36135 ft 411 kts 186°
2026-05-07 01:16 -23.93364 -49.24072 36133 ft 411 kts 186°
2026-05-07 01:17 -23.99077 -49.24198 36139 ft 410 kts 186°
2026-05-07 01:17 -24.04783 -49.24323 36139 ft 410 kts 186°
2026-05-07 01:18 -24.10448 -49.24448 36147 ft 410 kts 186°
2026-05-07 01:18 -24.16142 -49.24574 36155 ft 409 kts 186°
2026-05-07 01:19 -24.21837 -49.24699 36167 ft 409 kts 186°
2026-05-07 01:19 -24.27488 -49.24824 36154 ft 409 kts 186°
2026-05-07 01:20 -24.33171 -49.24950 36156 ft 409 kts 186°
2026-05-07 01:20 -24.38856 -49.25076 36151 ft 408 kts 186°
2026-05-07 01:21 -24.44538 -49.25201 36155 ft 408 kts 186°
2026-05-07 01:21 -24.50216 -49.25328 36149 ft 408 kts 186°
2026-05-07 01:22 -24.55894 -49.25454 36142 ft 408 kts 186°
2026-05-07 01:22 -24.61531 -49.25579 36149 ft 408 kts 186°
2026-05-07 01:23 -24.67199 -49.25705 36158 ft 407 kts 186°
2026-05-07 01:23 -24.72872 -49.25831 36147 ft 408 kts 186°
2026-05-07 01:24 -24.78502 -49.25956 36143 ft 407 kts 186°
2026-05-07 01:24 -24.84163 -49.26083 36148 ft 407 kts 186°
2026-05-07 01:25 -24.89822 -49.26209 36143 ft 407 kts 186°
2026-05-07 01:25 -24.95484 -49.26336 36157 ft 407 kts 186°
2026-05-07 01:26 -25.01167 -49.26463 36148 ft 409 kts 186°
2026-05-07 01:26 -25.06816 -49.26590 36152 ft 409 kts 186°
2026-05-07 01:27 -25.12501 -49.26716 36160 ft 408 kts 186°
2026-05-07 01:27 -25.18180 -49.26843 36165 ft 408 kts 187°
2026-05-07 01:28 -25.23858 -49.26971 36161 ft 408 kts 187°
2026-05-07 01:28 -25.29494 -49.27098 36160 ft 408 kts 187°
2026-05-07 01:29 -25.35178 -49.27226 36242 ft 408 kts 187°
2026-05-07 01:29 -25.40862 -49.27354 36246 ft 409 kts 187°
2026-05-07 01:30 -25.46546 -49.27482 36239 ft 409 kts 187°
2026-05-07 01:30 -25.52191 -49.27609 36240 ft 409 kts 187°
2026-05-07 01:31 -25.57898 -49.27470 36237 ft 415 kts 179°
2026-05-07 01:31 -25.63624 -49.26556 36224 ft 416 kts 178°
2026-05-07 01:32 -25.69358 -49.25619 36207 ft 416 kts 179°
2026-05-07 01:32 -25.74122 -49.24873 36207 ft 416 kts 179°
2026-05-07 01:33 -25.80788 -49.23853 36165 ft 417 kts 179°
2026-05-07 01:33 -25.83691 -49.23413 35695 ft 422 kts 179°
2026-05-07 01:33 -25.86575 -49.22971 35300 ft 417 kts 179°
2026-05-07 01:33 -25.89437 -49.22532 34859 ft 413 kts 179°
2026-05-07 01:34 -25.92272 -49.22097 34437 ft 410 kts 179°
2026-05-07 01:34 -25.94141 -49.21810 34151 ft 408 kts 179°
2026-05-07 01:34 -25.96944 -49.21382 33679 ft 405 kts 179°
2026-05-07 01:34 -25.99724 -49.20957 33235 ft 402 kts 179°
2026-05-07 01:35 -26.03372 -49.20399 32678 ft 397 kts 179°
2026-05-07 01:35 -26.06095 -49.19981 32264 ft 394 kts 179°
2026-05-07 01:35 -26.08794 -49.19433 31896 ft 395 kts 173°
2026-05-07 01:35 -26.10591 -49.18893 31642 ft 395 kts 171°
2026-05-07 01:36 -26.13181 -49.18003 31237 ft 394 kts 169°
2026-05-07 01:36 -26.15787 -49.17065 30839 ft 392 kts 169°
2026-05-07 01:36 -26.18376 -49.16140 30449 ft 390 kts 169°
2026-05-07 01:36 -26.20955 -49.15238 30034 ft 388 kts 170°
2026-05-07 01:37 -26.23526 -49.14356 29588 ft 385 kts 170°
2026-05-07 01:37 -26.26078 -49.13492 29161 ft 382 kts 170°
2026-05-07 01:37 -26.28614 -49.12639 28754 ft 379 kts 170°
2026-05-07 01:37 -26.31132 -49.11795 28372 ft 376 kts 170°
2026-05-07 01:38 -26.33630 -49.10958 27961 ft 373 kts 169°
2026-05-07 01:38 -26.36072 -49.10140 27590 ft 370 kts 169°
2026-05-07 01:38 -26.38536 -49.09315 27204 ft 368 kts 169°
2026-05-07 01:38 -26.40983 -49.08495 26826 ft 367 kts 169°
2026-05-07 01:39 -26.43425 -49.07675 26444 ft 366 kts 169°
2026-05-07 01:39 -26.45853 -49.06860 26071 ft 364 kts 169°
2026-05-07 01:39 -26.48291 -49.06042 25714 ft 368 kts 168°
2026-05-07 01:39 -26.50787 -49.05207 25340 ft 380 kts 168°
2026-05-07 01:40 -26.53341 -49.04352 24911 ft 384 kts 169°
2026-05-07 01:40 -26.55869 -49.03590 24533 ft 380 kts 171°
2026-05-07 01:40 -26.58426 -49.02884 24154 ft 378 kts 171°
2026-05-07 01:40 -26.60975 -49.02192 23749 ft 377 kts 171°
2026-05-07 01:41 -26.63517 -49.01495 23291 ft 375 kts 170°
2026-05-07 01:41 -26.66048 -49.00792 22878 ft 373 kts 170°
2026-05-07 01:41 -26.68557 -49.00086 22477 ft 371 kts 169°
2026-05-07 01:41 -26.71054 -48.99381 22093 ft 369 kts 169°
2026-05-07 01:42 -26.73530 -48.98681 21719 ft 367 kts 169°
2026-05-07 01:42 -26.75992 -48.97953 21317 ft 366 kts 166°
2026-05-07 01:42 -26.78369 -48.96951 20961 ft 365 kts 160°
2026-05-07 01:42 -26.80661 -48.95827 20593 ft 364 kts 159°
2026-05-07 01:43 -26.82961 -48.94670 20231 ft 361 kts 159°
2026-05-07 01:43 -26.85254 -48.93530 19859 ft 360 kts 159°
2026-05-07 01:43 -26.87541 -48.92415 19499 ft 358 kts 159°
2026-05-07 01:43 -26.89828 -48.91316 19124 ft 357 kts 159°
2026-05-07 01:44 -26.92114 -48.90226 18745 ft 356 kts 159°
2026-05-07 01:44 -26.94390 -48.89145 18370 ft 356 kts 159°
2026-05-07 01:44 -26.96666 -48.88064 17958 ft 354 kts 159°
2026-05-07 01:44 -26.98932 -48.86988 17570 ft 353 kts 159°
2026-05-07 01:45 -27.01156 -48.85931 17200 ft 351 kts 159°
2026-05-07 01:45 -27.03398 -48.84865 16836 ft 349 kts 159°
2026-05-07 01:45 -27.05630 -48.83804 16474 ft 347 kts 159°
2026-05-07 01:45 -27.07851 -48.82747 16114 ft 346 kts 159°
2026-05-07 01:46 -27.10061 -48.81695 15753 ft 345 kts 158°
2026-05-07 01:46 -27.12265 -48.80645 15389 ft 344 kts 158°
2026-05-07 01:46 -27.14464 -48.79597 15038 ft 343 kts 158°
2026-05-07 01:46 -27.16653 -48.78553 14677 ft 342 kts 158°
2026-05-07 01:47 -27.18840 -48.77510 14325 ft 341 kts 158°
2026-05-07 01:47 -27.20994 -48.76481 13953 ft 341 kts 158°
2026-05-07 01:47 -27.23169 -48.75442 13566 ft 340 kts 158°
2026-05-07 01:47 -27.25341 -48.74405 13194 ft 338 kts 158°
2026-05-07 01:48 -27.27502 -48.73374 12825 ft 336 kts 158°
2026-05-07 01:48 -27.29679 -48.72478 12483 ft 334 kts 162°
2026-05-07 01:48 -27.31885 -48.71687 12135 ft 332 kts 163°
2026-05-07 01:48 -27.34087 -48.70916 11782 ft 331 kts 163°
2026-05-07 01:49 -27.36278 -48.70138 11426 ft 330 kts 162°
2026-05-07 01:49 -27.38429 -48.69362 11084 ft 328 kts 162°
2026-05-07 01:49 -27.40597 -48.68570 10738 ft 327 kts 162°
2026-05-07 01:49 -27.42753 -48.67776 10467 ft 323 kts 162°
2026-05-07 01:50 -27.44858 -48.66999 10315 ft 315 kts 162°
2026-05-07 01:50 -27.46917 -48.66239 10086 ft 307 kts 162°
2026-05-07 01:50 -27.48852 -48.65324 9828 ft 299 kts 144°
2026-05-07 01:50 -27.50280 -48.63697 9610 ft 289 kts 124°
2026-05-07 01:51 -27.51352 -48.61811 9392 ft 284 kts 120°
2026-05-07 01:51 -27.52357 -48.59903 9109 ft 283 kts 119°
2026-05-07 01:51 -27.53351 -48.58004 8780 ft 280 kts 119°
2026-05-07 01:51 -27.54326 -48.56159 8455 ft 277 kts 120°
2026-05-07 01:52 -27.55311 -48.54307 8139 ft 274 kts 120°
2026-05-07 01:52 -27.56289 -48.52484 7870 ft 270 kts 120°
2026-05-07 01:52 -27.57257 -48.50686 7589 ft 267 kts 120°
2026-05-07 01:52 -27.58221 -48.48896 7230 ft 267 kts 120°
2026-05-07 01:53 -27.59184 -48.47108 6875 ft 266 kts 120°
2026-05-07 01:53 -27.60141 -48.45330 6463 ft 266 kts 120°
2026-05-07 01:53 -27.61101 -48.43542 5997 ft 267 kts 119°
2026-05-07 01:53 -27.62063 -48.41748 5530 ft 268 kts 119°
2026-05-07 01:54 -27.63027 -48.39953 5086 ft 268 kts 118°
2026-05-07 01:54 -27.63978 -48.38181 4642 ft 268 kts 118°
2026-05-07 01:54 -27.64934 -48.36400 4351 ft 262 kts 118°
2026-05-07 01:54 -27.65868 -48.34661 4094 ft 257 kts 119°
2026-05-07 01:55 -27.67075 -48.33205 3829 ft 256 kts 149°
2026-05-07 01:55 -27.68732 -48.32673 3626 ft 245 kts 181°
2026-05-07 01:55 -27.70351 -48.33028 3395 ft 232 kts 204°
2026-05-07 01:55 -27.71748 -48.33867 3149 ft 224 kts 213°
2026-05-07 01:56 -27.73064 -48.34779 2910 ft 220 kts 214°
2026-05-07 01:56 -27.74320 -48.35670 2686 ft 212 kts 219°
2026-05-07 01:56 -27.75198 -48.36909 2400 ft 197 kts 257°
2026-05-07 01:56 -27.75318 -48.38352 2158 ft 176 kts 285°
2026-05-07 01:57 -27.74929 -48.39600 1980 ft 164 kts 304°
2026-05-07 01:57 -27.74364 -48.40682 1770 ft 155 kts 306°
2026-05-07 01:57 -27.73823 -48.41684 1656 ft 146 kts 307°
2026-05-07 01:57 -27.73306 -48.42640 1540 ft 140 kts 308°
2026-05-07 01:58 -27.72788 -48.43593 1446 ft 143 kts 307°
2026-05-07 01:58 -27.72277 -48.44534 1359 ft 143 kts 305°
2026-05-07 01:58 -27.71759 -48.45490 1242 ft 142 kts 303°
2026-05-07 01:58 -27.71244 -48.46445 1127 ft 143 kts 303°
2026-05-07 01:59 -27.70729 -48.47400 1004 ft 142 kts 303°
2026-05-07 01:59 -27.70222 -48.48341 879 ft 138 kts 303°
2026-05-07 01:59 -27.69720 -48.49264 767 ft 138 kts 303°
2026-05-07 01:59 -27.69231 -48.50182 664 ft 137 kts 303°
2026-05-07 02:00 -27.68754 -48.51118 472 ft 138 kts 305°
2026-05-07 02:00 -27.68242 -48.52028 320 ft 137 kts 303°
2026-05-07 02:00 -27.67749 -48.52941 110 ft 139 kts 303°
2026-05-07 02:00 -27.67272 -48.53819 23 ft 112 kts 301°
2026-05-07 02:01 -27.66994 -48.54337 30 ft 50 kts 301°
2026-05-07 02:01 -27.66934 -48.54448 29 ft 12 kts 295°
2026-05-07 02:01 -27.66966 -48.54512 28 ft 7 kts 211°
2026-05-07 02:01 -27.67008 -48.54541 29 ft 8 kts 211°
2026-05-07 02:02 -27.67057 -48.54575 27 ft 8 kts 211°
2026-05-07 02:02 -27.67104 -48.54607 28 ft 8 kts 211°
2026-05-07 02:02 -27.67154 -48.54623 28 ft 8 kts 176°
2026-05-07 02:02 -27.67199 -48.54596 28 ft 7 kts 135°
2026-05-07 02:03 -27.67226 -48.54549 28 ft 7 kts 121°
2026-05-07 02:03 -27.67249 -48.54508 28 ft 4 kts 122°
2026-05-07 02:03 -27.67268 -48.54488 28 ft 4 kts 163°
2026-05-07 02:03 -27.67290 -48.54498 28 ft 2 kts 210°
2026-05-07 02:04 -27.67299 -48.54504 28 ft 0 kts 210°